Location: Hungerford
(51.4167°N, 1.5167°W)
Time: 15:20:56
(UTC+00:00)

Cosmos 2026 Rocket - Pass Details

Date: 18 September 2020
Orbit: 940 x 1000 km, 82.9° (Epoch: 27 October)

Event Time Altitude Azimuth Distance (km) Brightness Sun altitude
Rises 19:54:43 0° 352° (N) 3,713 7.5 -16.2°
Reaches altitude 10° 19:57:20 10° 357° (N) 2,767 6.7 -16.6°
Maximum altitude 20:03:31 51° 73° (ENE) 1,243 4.3 -17.5°
Enters shadow 20:06:54 26° 136° (SE) 1,839 4.9 -18.0°
